sat.trackr.live / text

‹ back to catalog

STARLINK-31291

NORAD 59096 · 2024-041Y

PAYLOAD ACTIVE UNKNOWN

§ Identity

Operator
Country
US
Launch date
2024-02-29
Launch site
AFETR
Launch vehicle
Mass (kg)
RCS (m²)

Purposes: comms

External: N2YO · Heavens-Above · Gunter

§ Orbital elements

Epoch: 2026-05-24T17:50:35.745792Z

Period
94.27 min
Inclination
43.0022°
Eccentricity
0.0001571
Mean motion
15.27601818 rev/d
Perigee alt
481.9 km
Apogee alt
484.1 km
Semi-major
6,861.1 km
B*
1.1716e-4
RAAN
241.1288°
Arg perigee
267.7808°
Mean anomaly
92.2864°
Rev number
12,590

§ Raw data

STARLINK-312911 59096U 24041Y   26144.74346928  .00002965  00000+0  11716-3 0  99902 59096  43.0022 241.1288 0001571 267.7808  92.2864 15.27601818125907

JSON: /api/v1/satellites/59096 · /tle

For live sub-satellite position, see the globe view (requires WebGL).

§ Visibility from observer

Set your observer location to see the next 7 days of passes ≥ 10°. The values pass through the URL so the page stays shareable.

No JS? Fill the form by hand. The geolocation button needs JavaScript.